x

La Perouse Bank (46206) Wave Buoy

5:00 - Fri 12th Feb 2016 All times are PST. -8 hours from GMT.

  • Sig Wave height 12.5ft
  • Peak Period 17s
  • Wind
    20mph, 25mph gusts
  • Sea Temp 51°f
  • Air Temp 51°f
  • Sea Pressure 1014mb
  • La Perouse Bank
  • La Perouse Bank

More Historic Weather Station data

Upgrade to MSW Pro to gain access to the past 30 days of data for over 8000 Wavebouys and Weather Stations around the globe.

Join Pro

Comparision Forecast

View Surf forecast
   
ven. 02/12 5:00 12.5ft 17s 20 25 mph 1014mb 51f 51f
4:00 13ft 17s 20 25 mph 1013.7mb 51f 51f
3:00 11ft 15s 20 22 mph 1013.8mb 51f 51f
2:00 11ft 12s 16 18 mph 1014mb 51f 51f
1:00 12ft 18s 13 18 mph 1014.1mb 51f 52f
12:00 11.5ft 13s 13 18 mph 1014.1mb 51f 52f
jeu. 02/11 11:00 12ft 17s 20 25 mph 1014mb 51f 50f
10:00 12ft 17s 27 31 mph 1014.1mb 51f 49f
9:00 12ft 13s 27 34 mph 1014.4mb 51f 49f
8:00 11.5ft 16s 27 36 mph 1014.6mb 51f 49f
7:00 13ft 18s 29 36 mph 1014.9mb 51f 49f
6:00 12ft 18s 29 40 mph 1014.8mb 51f 49f
5:00 11.5ft 13s 31 38 mph 1014.7mb 51f 49f
4:00 11.5ft 13s 31 40 mph 1014.6mb 51f 49f
3:00 11ft 14s 29 38 mph 1014.5mb 51f 49f
1:00 11.5ft 18s 31 36 mph 1015.2mb 50f 49f
12:00 10ft 18s 27 34 mph 1016.2mb 50f 49f
11:00 10ft 18s 25 31 mph 1017.1mb 50f 50f
10:00 10ft 18s 25 31 mph 1017.4mb 50f 50f
9:00 9.5ft 18s 25 31 mph 1017.9mb 50f 50f
8:00 9ft 18s 25 31 mph 1018.4mb 50f 50f
7:00 8.5ft 18s 22 29 mph 1019mb 50f 49f
6:00 8.5ft 18s 22 27 mph 1019.3mb 50f 50f
5:00 8ft 18s 20 25 mph 1020.4mb 50f 50f
4:00 8ft 10s 18 22 mph 1021.4mb 50f 49f
3:00 8ft 10s 18 22 mph 1021.9mb 51f 49f
2:00 7.5ft 10s 13 18 mph 1022.7mb 50f 49f
1:00 8ft 10s 16 20 mph 1022.9mb 50f 49f
12:00 8ft 10s 20 22 mph 1023.6mb 50f 49f
mer. 02/10 11:00 8ft 11s 13 18 mph 1024.3mb 50f 50f
10:00 8ft 11s 11 13 mph 1024mb 49f 50f
9:00 8ft 11s 9 11 mph 1024mb 50f 50f
8:00 8.5ft 9s 9
mph
1024.2mb 50f 50f
7:00 8ft 11s 9 11 mph 1024.3mb 50f 51f
6:00 8ft 10s 9 13 mph 1024mb 50f 51f
5:00 8ft 8s 9 11 mph 1023.3mb 50f 51f
4:00 8ft 12s 7 9 mph 1022.3mb 50f 51f
3:00 7.5ft 7s 9
mph
1021.4mb 50f 52f
2:00 7.5ft 6s 16 18 mph 1019.5mb 50f 52f
1:00 8ft 10s 18 22 mph 1018.2mb 50f 52f
12:00 7ft 8s 22 29 mph 1017.5mb 50f 51f
11:00  -   -  22
mph
1017.5mb - 52f
10:00 7ft 11s 22 27 mph 1016.8mb 51f 51f
9:00 6ft 10s 20 25 mph 1016.7mb 51f 51f
8:00 6ft 10s 16 20 mph 1016.8mb 51f 51f
7:00 6ft 11s 18 20 mph 1016.6mb 50f 51f
6:00 6ft 11s 18 20 mph 1016.6mb 50f 51f
5:00 6ft 11s 18 22 mph 1016.4mb 50f 51f
4:00 6ft 11s 20 25 mph 1016.3mb 50f 50f
3:00 5.5ft 11s 20 22 mph 1016.5mb 50f 50f
2:00 5.5ft 11s 16 18 mph 1017.1mb 50f 51f
1:00 5.5ft 11s 16 18 mph 1017.5mb 50f 50f
12:00 5.5ft 11s 13 16 mph 1018.5mb 50f 51f
mar. 02/09 11:00 5.5ft 12s 11 13 mph 1018.5mb 50f 51f
10:00 6ft 12s 13 16 mph 1018.5mb 50f 51f
9:00 6.5ft 12s 11 13 mph 1018.5mb 50f 51f
8:00 6ft 12s 9 11 mph 1018.2mb 50f 51f
7:00 6.5ft 12s 11 16 mph 1017.6mb 50f 51f
6:00 7ft 12s 11 13 mph 1017.9mb 50f 52f
5:00 7.5ft 13s 18 20 mph 1017.9mb 50f 53f
4:00 7ft 11s 20 25 mph 1017.7mb 50f 53f
3:00 7ft 13s 22 27 mph 1016.7mb 49f 52f
2:00 8ft 14s 25 29 mph 1016.7mb 50f 52f
1:00 8ft 13s 27 31 mph 1016.9mb 50f 52f
12:00 8ft 14s 25 31 mph 1017.5mb 51f 52f
11:00 8ft 11s 25 29 mph 1018.3mb 51f 52f
10:00 8ft 13s 25 31 mph 1018.4mb 51f 52f
9:00 9ft 13s 27 31 mph 1018.3mb 51f 52f
8:00 8ft 13s 25 29 mph 1018.6mb 51f 52f
7:00 9ft 14s 25 31 mph 1018.8mb 50f 52f
6:00 8.5ft 12s 25 31 mph 1019mb 50f 52f
5:00 9ft 14s 27 34 mph 1019mb 50f 53f
4:00 9.5ft 14s 25 29 mph 1018.7mb 50f 53f
3:00 9.5ft 12s 27 31 mph 1019.4mb 50f 53f
1:00 9.5ft 12s 22 29 mph 1019.8mb 50f 52f
12:00 10ft 14s 22 27 mph 1020.7mb 50f 52f
lun. 02/08 11:00 11ft 14s 18 22 mph 1021.9mb 50f 51f
10:00 11ft 14s 16 22 mph 1022.7mb 50f 51f
9:00 12ft 14s 16 20 mph 1023.9mb 50f 51f
8:00 12ft 14s 13 20 mph 1024.6mb 49f 51f
7:00 10.5ft 14s 16 20 mph 1024.9mb 49f 51f
6:00 11ft 13s 16 20 mph 1025.5mb 49f 51f
5:00 10.5ft 14s 16 18 mph 1026.3mb 50f 51f
4:00 11ft 14s 16 20 mph 1026.8mb 50f 51f
3:00 11ft 15s 16 20 mph 1027mb 50f 51f